Weather History for Erie, PA

Change the Weather History Date:

Friday, August 22, 2014

  Actual Average Record
Temperature  
Mean Temperature 73 °F 70 °F  
Max Temperature 80 °F 78 °F 93 °F (1936)
Min Temperature 66 °F 62 °F 42 °F (1957)
Degree Days  
Heating Degree Days 0 0  
Month to date heating degree days 11 0  
Since 1 June heating degree days 46 68  
Since 1 July heating degree days 16 7  
Cooling Degree Days 8 6  
Month to date cooling degree days 102 140  
Year to date cooling degree days 451 515  
Since 1 June cooling degree days 412 476  
Growing Degree Days 25 (Base 50)    
Moisture  
Dew Point 67 °F    
Average Humidity 79    
Maximum Humidity 90    
Minimum Humidity 67    
Precipitation  
Precipitation T in 0.10 in 2.02 in (1955)
Month to date precipitation 2.68 2.48  
Year to date precipitation 27.07 24.84  
Snow  
Snow 0.00 in 0.00 in - ()
Month to date snowfall 0.0 0.0  
Since 1 June snowfall 0.0 0.0  
Since 1 July snowfall 0.0 0.0  
Snow Depth 0.00 in    
Sea Level Pressure  
Sea Level Pressure 29.98 in    
Wind  
Wind Speed 4 mph (WSW)    
Max Wind Speed 10 mph    
Max Gust Speed 13 mph    
Visibility 10 miles    
Events      
T = Trace of Precipitation, MM = Missing Value Source: NWS Daily Summary

Daily Weather History Graph

Daily Weather History Graph

Search for Another Location

Airport:

Trip Planner

Search our weather history database for the weather conditions in past years. The results will help you decide how hot, cold, wet, or windy it might be!

Date:

Astronomy

Aug. 22, 2014 Rise Set
Actual Time 6:35 AM EDT 8:10 PM EDT
Civil Twilight 6:06 AM EDT 8:40 PM EDT
Nautical Twilight 5:30 AM EDT 9:15 PM EDT
Astronomical Twilight 4:52 AM EDT 9:53 PM EDT
Moon 3:55 AM EDT (8/22) 6:19 PM EDT (8/22)
Length of Visible Light 14h 33m
Length of Day
13h 34m
Waning Crescent, 8% of the Moon is Illuminated
Aug 22
Waning Crescent
Aug 25
New
Sep 2
First Quarter
Sep 8
Full
Sep 15
Last Quarter

Hourly Weather History & Observations

Time (EDT) Temp. Dew Point Humidity Pressure Visibility Wind Dir Wind Speed Gust Speed Precip Events Conditions
12:46 AM 73.4 °F 68.0 °F 83% 29.99 in 9.0 mi Calm Calm - N/A   Mostly Cloudy
12:51 AM 73.4 °F 68.0 °F 83% 29.99 in 9.0 mi Calm Calm - N/A   Mostly Cloudy
1:15 AM 71.6 °F 68.0 °F 88% 29.99 in 10.0 mi Calm Calm - N/A   Mostly Cloudy
1:33 AM 71.6 °F 68.0 °F 88% 30.00 in 9.0 mi SSW 4.6 mph - N/A   Overcast
1:51 AM 72.0 °F 68.0 °F 87% 29.98 in 10.0 mi South 4.6 mph - N/A   Mostly Cloudy
2:05 AM 71.6 °F 68.0 °F 88% 30.00 in 10.0 mi SSW 5.8 mph - N/A   Overcast
2:28 AM 71.6 °F 68.0 °F 88% 29.99 in 10.0 mi Calm Calm - N/A   Overcast
2:51 AM 72.0 °F 68.0 °F 87% 29.97 in 10.0 mi SSW 3.5 mph - N/A   Overcast
3:28 AM 71.6 °F 68.0 °F 88% 29.97 in 10.0 mi SW 4.6 mph - N/A   Overcast
3:42 AM 71.6 °F 68.0 °F 88% 29.96 in 10.0 mi Calm Calm - N/A   Overcast
3:51 AM 72.0 °F 68.0 °F 87% 29.95 in 10.0 mi SW 3.5 mph - N/A   Overcast
4:51 AM 71.6 °F 66.2 °F 83% 29.95 in 10.0 mi Calm Calm - N/A   Overcast
5:15 AM 71.6 °F 66.2 °F 83% 29.95 in 10.0 mi Calm Calm - N/A   Overcast
5:34 AM 69.8 °F 66.2 °F 88% 29.95 in 10.0 mi Calm Calm - N/A   Mostly Cloudy
5:48 AM 69.8 °F 66.2 °F 88% 29.96 in 10.0 mi Calm Calm - N/A   Mostly Cloudy
5:51 AM 71.6 °F 66.2 °F 83% 29.96 in 10.0 mi Calm Calm - N/A   Mostly Cloudy
6:49 AM 71.6 °F 66.2 °F 83% 29.98 in 10.0 mi South 4.6 mph - N/A   Overcast
6:51 AM 71.1 °F 66.9 °F 87% 29.97 in 10.0 mi South 5.8 mph - N/A   Overcast
7:51 AM 71.6 °F 66.2 °F 83% 29.99 in 10.0 mi SSW 3.5 mph - N/A   Overcast
8:47 AM 73.4 °F 66.2 °F 78% 29.99 in 10.0 mi SSW 4.6 mph - N/A   Overcast
8:51 AM 73.0 °F 66.9 °F 81% 29.99 in 10.0 mi SSW 4.6 mph - N/A   Overcast
9:31 AM 73.4 °F 68.0 °F 83% 30.00 in 10.0 mi SSW 6.9 mph - 0.00 in   Overcast
9:51 AM 73.9 °F 68.0 °F 82% 29.99 in 10.0 mi SSW 4.6 mph - 0.00 in   Overcast
10:46 AM 75.2 °F 68.0 °F 78% 30.00 in 10.0 mi SW 4.6 mph - N/A   Overcast
10:51 AM 75.0 °F 68.0 °F 79% 29.98 in 10.0 mi SSW 3.5 mph - N/A   Overcast
11:28 AM 75.2 °F 68.0 °F 78% 29.99 in 10.0 mi WNW 6.9 mph - N/A   Overcast
11:35 AM 75.2 °F 68.0 °F 78% 29.99 in 10.0 mi West 4.6 mph - N/A   Overcast
11:49 AM 75.2 °F 68.0 °F 78% 29.99 in 10.0 mi WNW 5.8 mph - N/A   Overcast
11:51 AM 75.9 °F 68.0 °F 76% 29.98 in 10.0 mi WNW 6.9 mph - N/A   Overcast
12:23 PM 75.2 °F 69.8 °F 83% 29.99 in 10.0 mi NW 5.8 mph - N/A   Mostly Cloudy
1:51 PM 79.0 °F 69.1 °F 72% 29.97 in 10.0 mi North 5.8 mph - N/A   Mostly Cloudy
2:26 PM 77.0 °F 69.8 °F 78% 29.99 in 10.0 mi North 6.9 mph - N/A   Overcast
2:51 PM 78.1 °F 68.0 °F 71% 29.96 in 10.0 mi NNW 6.9 mph - N/A   Partly Cloudy
3:51 PM 78.1 °F 68.0 °F 71% 29.96 in 10.0 mi North 9.2 mph - N/A   Partly Cloudy
4:51 PM 78.1 °F 68.0 °F 71% 29.95 in 10.0 mi NE 8.1 mph - N/A   Clear
5:51 PM 78.1 °F 66.9 °F 68% 29.95 in 10.0 mi North 4.6 mph - N/A   Clear
6:51 PM 77.0 °F 66.0 °F 69% 29.96 in 10.0 mi NE 6.9 mph - N/A   Clear
7:51 PM 73.9 °F 64.0 °F 71% 29.96 in 10.0 mi ENE 6.9 mph - N/A   Clear
8:51 PM 72.0 °F 66.0 °F 81% 29.98 in 9.0 mi ENE 4.6 mph - N/A   Clear
9:51 PM 71.6 °F 64.4 °F 78% 29.99 in 9.0 mi Calm Calm - N/A   Clear
10:51 PM 71.1 °F 64.0 °F 78% 29.99 in 8.0 mi Calm Calm - N/A   Clear
11:51 PM 68.0 °F 64.0 °F 87% 30.00 in 6.0 mi Calm Calm - N/A   Clear